This is the latest recevied weather packets stored in our database for station/object EA1HTW-13. If no packets are shown the sender has not sent any weather packets the latest 10 day(s).
| Time | Temp. | Humidity | Pressure | Rain* | Wind** | Luminosity | Snow |
|---|---|---|---|---|---|---|---|
| 1777911795 | 20° C | 46% | 1009.5 hPa | 0 mm | - | - | - |
| 1777911254 | 21.67° C | 43% | 1009.6 hPa | 0 mm | - | - | - |
| 1777910714 | 22.78° C | 40% | 1009.3 hPa | 0 mm | - | - | - |
| 1777910175 | 21.67° C | 46% | 1009.4 hPa | 0 mm | - | - | - |
| 1777909634 | 20.56° C | 47% | 1009.6 hPa | 0 mm | - | - | - |
| 1777909094 | 19.44° C | 54% | 1009.6 hPa | 0 mm | - | - | - |
| 1777908555 | 19.44° C | 47% | 1009.8 hPa | 0 mm | - | - | - |
| 1777908015 | 21.11° C | 43% | 1009.5 hPa | 0 mm | - | - | - |
| 1777907474 | 22.22° C | 42% | 1009.6 hPa | 0 mm | - | - | - |
| 1777906935 | 22.22° C | 42% | 1009.6 hPa | 0 mm | - | - | - |
| 1777906395 | 22.22° C | 43% | 1009.6 hPa | 0 mm | - | - | - |
| 1777905854 | 21.67° C | 43% | 1009.8 hPa | 0 mm | - | - | - |
| 1777905314 | 21.67° C | 42% | 1009.7 hPa | 0 mm | - | - | - |
| 1777904774 | 21.67° C | 43% | 1009.8 hPa | 0 mm | - | - | - |
| 1777904234 | 21.11° C | 45% | 1010 hPa | 0 mm | - | - | - |
| 1777903694 | 20.56° C | 45% | 1010 hPa | 0 mm | - | - | - |
| 1777903154 | 20.56° C | 45% | 1010 hPa | 0 mm | - | - | - |
| 1777902613 | 20.56° C | 45% | 1010 hPa | 0 mm | - | - | - |
| 1777902074 | 20° C | 45% | 1010 hPa | 0 mm | - | - | - |
| 1777901533 | 20° C | 46% | 1009.7 hPa | 0 mm | - | - | - |
| 1777900995 | 19.44° C | 48% | 1009.9 hPa | 0 mm | - | - | - |
| 1777900455 | 17.78° C | 52% | 1009.8 hPa | 0 mm | - | - | - |
| 1777899915 | 17.22° C | 52% | 1009.9 hPa | 0 mm | - | - | - |
| 1777899374 | 17.78° C | 47% | 1009.8 hPa | 0 mm | - | - | - |
| 1777898835 | 17.78° C | 47% | 1009.8 hPa | 0 mm | - | - | - |
* Rain latest hour (hover to see other rain measurements)
** Current wind speed in m/s (hover to see current wind gust speed)